rank1,rank2,rank3,rank4
2020/05/01 1:00:00,2020/05/01 0:42:00,2020/05/01 0:20:00,2020/05/01 0:02:00
2020/05/01 3:00:00,2020/05/01 1:42:00,2020/05/01 1:20:00,2020/05/01 1:02:00
2020/05/01 7:00:00,2020/05/01 3:42:00,2020/05/01 3:20:00,2020/05/01 2:02:00
2020/05/01 11:00:00,2020/05/01 6:42:00,2020/05/01 7:20:00,2020/05/01 3:02:00
2020/05/01 15:00:00,2020/05/01 9:42:00,2020/05/01 9:20:00,2020/05/01 4:02:00
2020/05/01 19:00:00,2020/05/01 12:42:00,2020/05/01 11:20:00,2020/05/01 5:02:00
2020/05/01 22:00:00,2020/05/01 15:42:00,2020/05/01 13:20:00,2020/05/01 6:02:00
2020/05/01 23:00:00,2020/05/01 18:42:00,2020/05/01 15:20:00,2020/05/01 7:02:00
2020/05/02 1:00:00,2020/05/01 21:42:00,2020/05/01 17:20:00,2020/05/01 8:02:00
2020/05/02 3:00:00,2020/05/01 22:42:00,2020/05/01 19:20:00,2020/05/01 9:02:00
2020/05/02 7:00:00,2020/05/02 0:42:00,2020/05/01 21:20:00,2020/05/01 10:02:00
2020/05/02 11:00:00,2020/05/02 1:42:00,2020/05/01 22:20:00,2020/05/01 11:02:00
2020/05/02 15:00:00,2020/05/02 3:42:00,2020/05/01 23:20:00,2020/05/01 12:02:00
2020/05/02 19:00:00,2020/05/02 6:42:00,2020/05/02 0:20:00,2020/05/01 13:02:00
2020/05/02 22:00:00,2020/05/02 9:42:00,2020/05/02 1:20:00,2020/05/01 14:02:00
2020/05/02 23:00:00,2020/05/02 12:42:00,2020/05/02 3:20:00,2020/05/01 15:02:00
2020/05/03 7:00:00,2020/05/02 15:42:00,2020/05/02 7:20:00,2020/05/01 16:02:00
2020/05/03 11:00:00,2020/05/02 18:42:00,2020/05/02 9:20:00,2020/05/01 17:02:00
2020/05/03 15:00:00,2020/05/02 21:42:00,2020/05/02 11:20:00,2020/05/01 18:02:00
2020/05/03 19:00:00,2020/05/02 22:42:00,2020/05/02 13:20:00,2020/05/01 19:02:00
2020/05/03 22:00:00,2020/05/03 0:42:00,2020/05/02 15:20:00,2020/05/01 20:02:00
2020/05/03 23:00:00,2020/05/03 1:42:00,2020/05/02 17:20:00,2020/05/01 21:02:00
2020/05/04 1:00:00,2020/05/03 3:42:00,2020/05/02 19:20:00,2020/05/01 22:02:00
2020/05/04 3:00:00,2020/05/03 6:42:00,2020/05/02 21:20:00,2020/05/01 23:02:00
2020/05/04 7:00:00,2020/05/03 9:42:00,2020/05/02 22:20:00,2020/05/02 0:02:00
2020/05/04 11:00:00,2020/05/03 12:42:00,2020/05/02 23:20:00,2020/05/02 1:02:00
2020/05/04 15:00:00,2020/05/03 15:42:00,2020/05/03 0:20:00,2020/05/02 2:02:00
2020/05/04 19:00:00,2020/05/03 18:42:00,2020/05/03 1:20:00,2020/05/02 3:02:00
2020/05/04 22:00:00,2020/05/03 21:42:00,2020/05/03 3:20:00,2020/05/02 4:02:00
2020/05/04 23:00:00,2020/05/03 22:42:00,2020/05/03 7:20:00,2020/05/02 5:02:00
2020/05/05 1:00:00,2020/05/04 0:42:00,2020/05/03 9:20:00,2020/05/02 6:02:00
2020/05/05 3:00:00,2020/05/04 1:42:00,2020/05/03 11:20:00,2020/05/02 7:02:00
2020/05/05 7:00:00,2020/05/04 3:42:00,2020/05/03 13:20:00,2020/05/02 8:02:00
2020/05/05 11:00:00,2020/05/04 6:42:00,2020/05/03 15:20:00,2020/05/02 9:02:00
2020/05/05 15:00:00,2020/05/04 9:42:00,2020/05/03 17:20:00,2020/05/02 10:02:00
2020/05/05 19:00:00,2020/05/04 12:42:00,2020/05/03 19:20:00,2020/05/02 11:02:00
2020/05/05 22:00:00,2020/05/04 15:42:00,2020/05/03 21:20:00,2020/05/02 12:02:00
2020/05/05 23:00:00,2020/05/04 18:42:00,2020/05/03 22:20:00,2020/05/02 13:02:00
2020/05/06 1:00:00,2020/05/04 21:42:00,2020/05/03 23:20:00,2020/05/02 14:02:00
2020/05/06 3:00:00,2020/05/04 22:42:00,2020/05/04 0:20:00,2020/05/02 15:02:00
2020/05/06 7:00:00,2020/05/05 0:42:00,2020/05/04 1:20:00,2020/05/02 16:02:00
2020/05/06 11:00:00,2020/05/05 1:42:00,2020/05/04 3:20:00,2020/05/02 17:02:00
2020/05/06 15:00:00,2020/05/05 3:42:00,2020/05/04 7:20:00,2020/05/02 18:02:00
2020/05/06 19:00:00,2020/05/05 6:42:00,2020/05/04 9:20:00,2020/05/02 19:02:00
2020/05/06 22:00:00,2020/05/05 9:42:00,2020/05/04 11:20:00,2020/05/02 20:02:00
2020/05/06 23:00:00,2020/05/05 12:42:00,2020/05/04 13:20:00,2020/05/02 21:02:00
2020/05/07 1:00:00,2020/05/05 15:42:00,2020/05/04 15:20:00,2020/05/02 22:02:00
2020/05/07 3:00:00,2020/05/05 18:42:00,2020/05/04 17:20:00,2020/05/02 23:02:00
2020/05/07 7:00:00,2020/05/05 21:42:00,2020/05/04 19:20:00,2020/05/03 0:02:00
2020/05/07 11:00:00,2020/05/05 22:42:00,2020/05/04 21:20:00,2020/05/03 1:02:00
2020/05/07 15:00:00,2020/05/06 0:42:00,2020/05/04 22:20:00,2020/05/03 2:02:00
2020/05/07 19:00:00,2020/05/06 1:42:00,2020/05/04 23:20:00,2020/05/03 3:02:00
2020/05/07 22:00:00,2020/05/06 3:42:00,2020/05/05 0:20:00,2020/05/03 4:02:00
2020/05/07 23:00:00,2020/05/06 6:42:00,2020/05/05 1:20:00,2020/05/03 5:02:00
2020/05/08 1:00:00,2020/05/06 9:42:00,2020/05/05 3:20:00,2020/05/03 6:02:00
2020/05/08 3:00:00,2020/05/06 12:42:00,2020/05/05 7:20:00,2020/05/03 7:02:00
2020/05/08 7:00:00,2020/05/06 15:42:00,2020/05/05 9:20:00,2020/05/03 8:02:00
2020/05/08 11:00:00,2020/05/06 18:42:00,2020/05/05 11:20:00,2020/05/03 9:02:00
2020/05/08 15:00:00,2020/05/06 21:42:00,2020/05/05 13:20:00,2020/05/03 10:02:00
2020/05/08 19:00:00,2020/05/06 22:42:00,2020/05/05 15:20:00,2020/05/03 11:02:00
2020/05/08 22:00:00,2020/05/07 0:42:00,2020/05/05 17:20:00,2020/05/03 12:02:00
2020/05/08 23:00:00,2020/05/07 1:42:00,2020/05/05 19:20:00,2020/05/03 13:02:00
2020/05/09 1:00:00,2020/05/07 3:42:00,2020/05/05 21:20:00,2020/05/03 14:02:00
2020/05/09 3:00:00,2020/05/07 6:42:00,2020/05/05 22:20:00,2020/05/03 15:02:00
2020/05/09 7:00:00,2020/05/07 9:42:00,2020/05/05 23:20:00,2020/05/03 16:02:00
2020/05/09 11:00:00,2020/05/07 12:42:00,2020/05/06 0:20:00,2020/05/03 17:02:00
2020/05/09 15:00:00,2020/05/07 15:42:00,2020/05/06 1:20:00,2020/05/03 18:02:00
2020/05/09 19:00:00,2020/05/07 18:42:00,2020/05/06 3:20:00,2020/05/03 19:02:00
2020/05/09 22:00:00,2020/05/07 21:42:00,2020/05/06 7:20:00,2020/05/03 20:02:00
2020/05/09 23:00:00,2020/05/07 22:42:00,2020/05/06 9:20:00,2020/05/03 21:02:00
2020/05/10 1:00:00,2020/05/08 0:42:00,2020/05/06 11:20:00,2020/05/03 22:02:00
2020/05/10 3:00:00,2020/05/08 1:42:00,2020/05/06 13:20:00,2020/05/03 23:02:00
2020/05/10 7:00:00,2020/05/08 3:42:00,2020/05/06 15:20:00,2020/05/04 0:02:00
2020/05/10 11:00:00,2020/05/08 6:42:00,2020/05/06 17:20:00,2020/05/04 1:02:00
2020/05/10 15:00:00,2020/05/08 9:42:00,2020/05/06 19:20:00,2020/05/04 2:02:00
2020/05/10 19:00:00,2020/05/08 12:42:00,2020/05/06 21:20:00,2020/05/04 3:02:00
2020/05/10 22:00:00,2020/05/08 15:42:00,2020/05/06 22:20:00,2020/05/04 4:02:00
2020/05/10 23:00:00,2020/05/08 18:42:00,2020/05/06 23:20:00,2020/05/04 5:02:00
2020/05/11 1:00:00,2020/05/08 21:42:00,2020/05/07 0:20:00,2020/05/04 6:02:00
2020/05/11 3:00:00,2020/05/08 22:42:00,2020/05/07 1:20:00,2020/05/04 7:02:00
2020/05/11 7:00:00,2020/05/09 0:42:00,2020/05/07 3:20:00,2020/05/04 8:02:00
2020/05/11 11:00:00,2020/05/09 1:42:00,2020/05/07 7:20:00,2020/05/04 9:02:00
2020/05/11 15:00:00,2020/05/09 3:42:00,2020/05/07 9:20:00,2020/05/04 10:02:00
2020/05/11 19:00:00,2020/05/09 6:42:00,2020/05/07 11:20:00,2020/05/04 11:02:00
2020/05/11 22:00:00,2020/05/09 9:42:00,2020/05/07 13:20:00,2020/05/04 12:02:00
2020/05/11 23:00:00,2020/05/09 12:42:00,2020/05/07 15:20:00,2020/05/04 13:02:00
2020/05/12 1:00:00,2020/05/09 15:42:00,2020/05/07 17:20:00,2020/05/04 14:02:00
2020/05/12 3:00:00,2020/05/09 18:42:00,2020/05/07 19:20:00,2020/05/04 15:02:00
2020/05/12 7:00:00,2020/05/09 21:42:00,2020/05/07 21:20:00,2020/05/04 16:02:00
2020/05/12 11:00:00,2020/05/09 22:42:00,2020/05/07 22:20:00,2020/05/04 17:02:00
2020/05/12 15:00:00,2020/05/10 0:42:00,2020/05/07 23:20:00,2020/05/04 18:02:00
2020/05/12 19:00:00,2020/05/10 1:42:00,2020/05/08 0:20:00,2020/05/04 19:02:00
2020/05/12 22:00:00,2020/05/10 3:42:00,2020/05/08 1:20:00,2020/05/04 20:02:00
2020/05/12 23:00:00,2020/05/10 6:42:00,2020/05/08 3:20:00,2020/05/04 21:02:00
2020/05/13 7:00:00,2020/05/10 9:42:00,2020/05/08 7:20:00,2020/05/04 22:02:00
2020/05/13 11:00:00,2020/05/10 12:42:00,2020/05/08 9:20:00,2020/05/04 23:02:00
2020/05/13 15:00:00,2020/05/10 15:42:00,2020/05/08 11:20:00,2020/05/05 0:02:00
2020/05/13 19:00:00,2020/05/10 18:42:00,2020/05/08 13:20:00,2020/05/05 1:02:00
2020/05/13 22:00:00,2020/05/10 21:42:00,2020/05/08 15:20:00,2020/05/05 2:02:00
2020/05/13 23:00:00,2020/05/10 22:42:00,2020/05/08 17:20:00,2020/05/05 3:02:00
2020/05/14 1:00:00,2020/05/11 0:42:00,2020/05/08 19:20:00,2020/05/05 4:02:00
2020/05/14 3:00:00,2020/05/11 1:42:00,2020/05/08 21:20:00,2020/05/05 5:02:00
2020/05/14 7:00:00,2020/05/11 3:42:00,2020/05/08 22:20:00,2020/05/05 6:02:00
2020/05/14 11:00:00,2020/05/11 6:42:00,2020/05/08 23:20:00,2020/05/05 7:02:00
2020/05/14 15:00:00,2020/05/11 9:42:00,2020/05/09 0:20:00,2020/05/05 8:02:00
2020/05/14 19:00:00,2020/05/11 12:42:00,2020/05/09 1:20:00,2020/05/05 9:02:00
2020/05/14 22:00:00,2020/05/11 15:42:00,2020/05/09 3:20:00,2020/05/05 10:02:00
2020/05/14 23:00:00,2020/05/11 18:42:00,2020/05/09 7:20:00,2020/05/05 11:02:00
2020/05/15 1:00:00,2020/05/11 21:42:00,2020/05/09 9:20:00,2020/05/05 12:02:00
2020/05/15 3:00:00,2020/05/11 22:42:00,2020/05/09 11:20:00,2020/05/05 13:02:00
2020/05/15 7:00:00,2020/05/12 0:42:00,2020/05/09 13:20:00,2020/05/05 14:02:00
2020/05/15 11:00:00,2020/05/12 1:42:00,2020/05/09 15:20:00,2020/05/05 15:02:00
2020/05/15 15:00:00,2020/05/12 3:42:00,2020/05/09 17:20:00,2020/05/05 16:02:00
2020/05/15 19:00:00,2020/05/12 6:42:00,2020/05/09 19:20:00,2020/05/05 17:02:00
2020/05/15 22:00:00,2020/05/12 9:42:00,2020/05/09 21:20:00,2020/05/05 18:02:00
2020/05/15 23:00:00,2020/05/12 12:42:00,2020/05/09 22:20:00,2020/05/05 19:02:00
2020/05/16 1:00:00,2020/05/12 15:42:00,2020/05/09 23:20:00,2020/05/05 20:02:00
2020/05/16 3:00:00,2020/05/12 18:42:00,2020/05/10 0:20:00,2020/05/05 21:02:00
2020/05/16 7:00:00,2020/05/12 21:42:00,2020/05/10 1:20:00,2020/05/05 22:02:00
2020/05/16 11:00:00,2020/05/12 22:42:00,2020/05/10 3:20:00,2020/05/05 23:02:00
2020/05/16 15:00:00,2020/05/13 0:42:00,2020/05/10 7:20:00,2020/05/06 0:02:00
2020/05/16 19:00:00,2020/05/13 1:42:00,2020/05/10 9:20:00,2020/05/06 1:02:00
2020/05/16 22:00:00,2020/05/13 3:42:00,2020/05/10 11:20:00,2020/05/06 2:02:00
2020/05/16 23:00:00,2020/05/13 6:42:00,2020/05/10 13:20:00,2020/05/06 3:02:00
2020/05/17 7:00:00,2020/05/13 9:42:00,2020/05/10 15:20:00,2020/05/06 4:02:00
2020/05/17 11:00:00,2020/05/13 12:42:00,2020/05/10 17:20:00,2020/05/06 5:02:00
2020/05/17 15:00:00,2020/05/13 15:42:00,2020/05/10 19:20:00,2020/05/06 6:02:00
2020/05/17 19:00:00,2020/05/13 18:42:00,2020/05/10 21:20:00,2020/05/06 7:02:00
2020/05/17 22:00:00,2020/05/13 21:42:00,2020/05/10 22:20:00,2020/05/06 8:02:00
2020/05/17 23:00:00,2020/05/13 22:42:00,2020/05/10 23:20:00,2020/05/06 9:02:00
2020/05/18 1:00:00,2020/05/14 0:42:00,2020/05/11 0:20:00,2020/05/06 10:02:00
2020/05/18 3:00:00,2020/05/14 1:42:00,2020/05/11 1:20:00,2020/05/06 11:02:00
2020/05/18 7:00:00,2020/05/14 3:42:00,2020/05/11 3:20:00,2020/05/06 12:02:00
2020/05/18 11:00:00,2020/05/14 6:42:00,2020/05/11 7:20:00,2020/05/06 13:02:00
2020/05/18 15:00:00,2020/05/14 9:42:00,2020/05/11 9:20:00,2020/05/06 14:02:00
2020/05/18 19:00:00,2020/05/14 12:42:00,2020/05/11 11:20:00,2020/05/06 15:02:00
2020/05/18 22:00:00,2020/05/14 15:42:00,2020/05/11 13:20:00,2020/05/06 16:02:00
2020/05/18 23:00:00,2020/05/14 18:42:00,2020/05/11 15:20:00,2020/05/06 17:02:00
2020/05/19 1:00:00,2020/05/14 21:42:00,2020/05/11 17:20:00,2020/05/06 18:02:00
2020/05/19 3:00:00,2020/05/14 22:42:00,2020/05/11 19:20:00,2020/05/06 19:02:00
2020/05/19 7:00:00,2020/05/15 0:42:00,2020/05/11 21:20:00,2020/05/06 20:02:00
2020/05/19 11:00:00,2020/05/15 1:42:00,2020/05/11 22:20:00,2020/05/06 21:02:00
2020/05/19 15:00:00,2020/05/15 3:42:00,2020/05/11 23:20:00,2020/05/06 22:02:00
2020/05/19 19:00:00,2020/05/15 6:42:00,2020/05/12 0:20:00,2020/05/06 23:02:00
2020/05/19 22:00:00,2020/05/15 9:42:00,2020/05/12 1:20:00,2020/05/07 0:02:00
2020/05/19 23:00:00,2020/05/15 12:42:00,2020/05/12 3:20:00,2020/05/07 1:02:00
2020/05/20 1:00:00,2020/05/15 15:42:00,2020/05/12 7:20:00,2020/05/07 2:02:00
2020/05/20 3:00:00,2020/05/15 18:42:00,2020/05/12 9:20:00,2020/05/07 3:02:00
2020/05/20 7:00:00,2020/05/15 21:42:00,2020/05/12 11:20:00,2020/05/07 4:02:00
2020/05/20 11:00:00,2020/05/15 22:42:00,2020/05/12 13:20:00,2020/05/07 5:02:00
2020/05/20 15:00:00,2020/05/16 0:42:00,2020/05/12 15:20:00,2020/05/07 6:02:00
2020/05/20 19:00:00,2020/05/16 1:42:00,2020/05/12 17:20:00,2020/05/07 7:02:00
2020/05/20 22:00:00,2020/05/16 3:42:00,2020/05/12 19:20:00,2020/05/07 8:02:00
2020/05/20 23:00:00,2020/05/16 6:42:00,2020/05/12 21:20:00,2020/05/07 9:02:00
2020/05/21 7:00:00,2020/05/16 9:42:00,2020/05/12 22:20:00,2020/05/07 10:02:00
2020/05/21 11:00:00,2020/05/16 12:42:00,2020/05/12 23:20:00,2020/05/07 11:02:00
2020/05/21 15:00:00,2020/05/16 15:42:00,2020/05/13 0:20:00,2020/05/07 12:02:00
2020/05/21 19:00:00,2020/05/16 18:42:00,2020/05/13 1:20:00,2020/05/07 13:02:00
2020/05/21 22:00:00,2020/05/16 21:42:00,2020/05/13 3:20:00,2020/05/07 14:02:00
2020/05/21 23:00:00,2020/05/16 22:42:00,2020/05/13 7:20:00,2020/05/07 15:02:00
2020/05/22 1:00:00,2020/05/17 0:42:00,2020/05/13 9:20:00,2020/05/07 16:02:00
2020/05/22 3:00:00,2020/05/17 1:42:00,2020/05/13 11:20:00,2020/05/07 17:02:00
2020/05/22 7:00:00,2020/05/17 3:42:00,2020/05/13 13:20:00,2020/05/07 18:02:00
2020/05/22 11:00:00,2020/05/17 6:42:00,2020/05/13 15:20:00,2020/05/07 19:02:00
2020/05/22 15:00:00,2020/05/17 9:42:00,2020/05/13 17:20:00,2020/05/07 20:02:00
2020/05/22 19:00:00,2020/05/17 12:42:00,2020/05/13 19:20:00,2020/05/07 21:02:00
2020/05/22 22:00:00,2020/05/17 15:42:00,2020/05/13 21:20:00,2020/05/07 22:02:00
2020/05/22 23:00:00,2020/05/17 18:42:00,2020/05/13 22:20:00,2020/05/07 23:02:00
2020/05/23 1:00:00,2020/05/17 21:42:00,2020/05/13 23:20:00,2020/05/08 0:02:00
2020/05/23 3:00:00,2020/05/17 22:42:00,2020/05/14 0:20:00,2020/05/08 1:02:00
2020/05/23 7:00:00,2020/05/18 0:42:00,2020/05/14 1:20:00,2020/05/08 2:02:00
2020/05/23 11:00:00,2020/05/18 1:42:00,2020/05/14 3:20:00,2020/05/08 3:02:00
2020/05/23 15:00:00,2020/05/18 3:42:00,2020/05/14 7:20:00,2020/05/08 4:02:00
2020/05/23 19:00:00,2020/05/18 6:42:00,2020/05/14 9:20:00,2020/05/08 5:02:00
2020/05/23 22:00:00,2020/05/18 9:42:00,2020/05/14 11:20:00,2020/05/08 6:02:00
2020/05/23 23:00:00,2020/05/18 12:42:00,2020/05/14 13:20:00,2020/05/08 7:02:00
2020/05/24 1:00:00,2020/05/18 15:42:00,2020/05/14 15:20:00,2020/05/08 8:02:00
2020/05/24 3:00:00,2020/05/18 18:42:00,2020/05/14 17:20:00,2020/05/08 9:02:00
2020/05/24 7:00:00,2020/05/18 21:42:00,2020/05/14 19:20:00,2020/05/08 10:02:00
2020/05/24 11:00:00,2020/05/18 22:42:00,2020/05/14 21:20:00,2020/05/08 11:02:00
2020/05/24 15:00:00,2020/05/19 0:42:00,2020/05/14 22:20:00,2020/05/08 12:02:00
2020/05/24 19:00:00,2020/05/19 1:42:00,2020/05/14 23:20:00,2020/05/08 13:02:00
2020/05/24 22:00:00,2020/05/19 3:42:00,2020/05/15 0:20:00,2020/05/08 14:02:00
2020/05/24 23:00:00,2020/05/19 6:42:00,2020/05/15 1:20:00,2020/05/08 15:02:00
2020/05/25 7:00:00,2020/05/19 9:42:00,2020/05/15 3:20:00,2020/05/08 16:02:00
2020/05/25 11:00:00,2020/05/19 12:42:00,2020/05/15 7:20:00,2020/05/08 17:02:00
2020/05/25 15:00:00,2020/05/19 15:42:00,2020/05/15 9:20:00,2020/05/08 18:02:00
2020/05/25 19:00:00,2020/05/19 18:42:00,2020/05/15 11:20:00,2020/05/08 19:02:00
2020/05/25 22:00:00,2020/05/19 21:42:00,2020/05/15 13:20:00,2020/05/08 20:02:00
2020/05/25 23:00:00,2020/05/19 22:42:00,2020/05/15 15:20:00,2020/05/08 21:02:00
2020/05/26 1:00:00,2020/05/20 0:42:00,2020/05/15 17:20:00,2020/05/08 22:02:00
2020/05/26 3:00:00,2020/05/20 1:42:00,2020/05/15 19:20:00,2020/05/08 23:02:00
2020/05/26 7:00:00,2020/05/20 3:42:00,2020/05/15 21:20:00,2020/05/09 0:02:00
2020/05/26 11:00:00,2020/05/20 6:42:00,2020/05/15 22:20:00,2020/05/09 1:02:00
2020/05/26 15:00:00,2020/05/20 9:42:00,2020/05/15 23:20:00,2020/05/09 2:02:00
2020/05/26 19:00:00,2020/05/20 12:42:00,2020/05/16 0:20:00,2020/05/09 3:02:00
2020/05/26 22:00:00,2020/05/20 15:42:00,2020/05/16 1:20:00,2020/05/09 4:02:00
2020/05/12 23:00:00,2020/05/20 18:42:00,2020/05/16 3:20:00,2020/05/09 5:02:00
2020/05/27 1:00:00,2020/05/20 21:42:00,2020/05/16 7:20:00,2020/05/09 6:02:00
2020/05/27 3:00:00,2020/05/20 22:42:00,2020/05/16 9:20:00,2020/05/09 7:02:00
2020/05/27 7:00:00,2020/05/21 0:42:00,2020/05/16 11:20:00,2020/05/09 8:02:00
2020/05/27 11:00:00,2020/05/21 1:42:00,2020/05/16 13:20:00,2020/05/09 9:02:00
2020/05/27 15:00:00,2020/05/21 3:42:00,2020/05/16 15:20:00,2020/05/09 10:02:00
2020/05/27 19:00:00,2020/05/21 6:42:00,2020/05/16 17:20:00,2020/05/09 11:02:00
2020/05/27 22:00:00,2020/05/21 9:42:00,2020/05/16 19:20:00,2020/05/09 12:02:00
2020/05/27 23:00:00,2020/05/21 12:42:00,2020/05/16 21:20:00,2020/05/09 13:02:00
2020/05/28 1:00:00,2020/05/21 15:42:00,2020/05/16 22:20:00,2020/05/09 14:02:00
2020/05/28 3:00:00,2020/05/21 18:42:00,2020/05/16 23:20:00,2020/05/09 15:02:00
2020/05/28 7:00:00,2020/05/21 21:42:00,2020/05/17 0:20:00,2020/05/09 16:02:00
2020/05/28 11:00:00,2020/05/21 22:42:00,2020/05/17 1:20:00,2020/05/09 17:02:00
2020/05/28 15:00:00,2020/05/22 0:42:00,2020/05/17 3:20:00,2020/05/09 18:02:00
2020/05/28 19:00:00,2020/05/22 1:42:00,2020/05/17 7:20:00,2020/05/09 19:02:00
2020/05/28 22:00:00,2020/05/22 3:42:00,2020/05/17 9:20:00,2020/05/09 20:02:00
2020/05/28 23:00:00,2020/05/22 6:42:00,2020/05/17 11:20:00,2020/05/09 21:02:00
2020/05/29 7:00:00,2020/05/22 9:42:00,2020/05/17 13:20:00,2020/05/09 22:02:00
2020/05/29 11:00:00,2020/05/22 12:42:00,2020/05/17 15:20:00,2020/05/09 23:02:00
2020/05/29 15:00:00,2020/05/22 15:42:00,2020/05/17 17:20:00,2020/05/10 0:02:00
2020/05/29 19:00:00,2020/05/22 18:42:00,2020/05/17 19:20:00,2020/05/10 1:02:00
2020/05/29 22:00:00,2020/05/22 21:42:00,2020/05/17 21:20:00,2020/05/10 2:02:00
2020/05/29 23:00:00,2020/05/22 22:42:00,2020/05/17 22:20:00,2020/05/10 3:02:00
2020/05/30 1:00:00,2020/05/23 0:42:00,2020/05/17 23:20:00,2020/05/10 4:02:00
2020/05/30 3:00:00,2020/05/23 1:42:00,2020/05/18 0:20:00,2020/05/10 5:02:00
2020/05/30 7:00:00,2020/05/23 3:42:00,2020/05/18 1:20:00,2020/05/10 6:02:00
2020/05/30 11:00:00,2020/05/23 6:42:00,2020/05/18 3:20:00,2020/05/10 7:02:00
2020/05/30 15:00:00,2020/05/23 9:42:00,2020/05/18 7:20:00,2020/05/10 8:02:00
2020/05/30 19:00:00,2020/05/23 12:42:00,2020/05/18 9:20:00,2020/05/10 9:02:00
2020/05/30 22:00:00,2020/05/23 15:42:00,2020/05/18 11:20:00,2020/05/10 10:02:00
2020/05/30 23:00:00,2020/05/23 18:42:00,2020/05/18 13:20:00,2020/05/10 11:02:00
2020/05/31 1:00:00,2020/05/23 21:42:00,2020/05/18 15:20:00,2020/05/10 12:02:00
2020/05/31 3:00:00,2020/05/23 22:42:00,2020/05/18 17:20:00,2020/05/10 13:02:00
2020/05/31 7:00:00,2020/05/24 0:42:00,2020/05/18 19:20:00,2020/05/10 14:02:00
2020/05/31 11:00:00,2020/05/24 1:42:00,2020/05/18 21:20:00,2020/05/10 15:02:00
2020/05/31 15:00:00,2020/05/24 3:42:00,2020/05/18 22:20:00,2020/05/10 16:02:00
2020/05/31 19:00:00,2020/05/24 6:42:00,2020/05/18 23:20:00,2020/05/10 17:02:00
2020/05/31 22:00:00,2020/05/24 9:42:00,2020/05/19 0:20:00,2020/05/10 18:02:00
2020/05/31 23:00:00,2020/05/24 12:42:00,2020/05/19 1:20:00,2020/05/10 19:02:00
,2020/05/24 15:42:00,2020/05/19 3:20:00,2020/05/10 20:02:00
,2020/05/24 18:42:00,2020/05/19 7:20:00,2020/05/10 21:02:00
,2020/05/24 21:42:00,2020/05/19 9:20:00,2020/05/10 22:02:00
,2020/05/24 22:42:00,2020/05/19 11:20:00,2020/05/10 23:02:00
,2020/05/25 0:42:00,2020/05/19 13:20:00,2020/05/11 0:02:00
,2020/05/25 1:42:00,2020/05/19 15:20:00,2020/05/11 1:02:00
,2020/05/25 3:42:00,2020/05/19 17:20:00,2020/05/11 2:02:00
,2020/05/25 6:42:00,2020/05/19 19:20:00,2020/05/11 3:02:00
,2020/05/25 9:42:00,2020/05/19 21:20:00,2020/05/11 4:02:00
,2020/05/25 12:42:00,2020/05/19 22:20:00,2020/05/11 5:02:00
,2020/05/25 15:42:00,2020/05/19 23:20:00,2020/05/11 6:02:00
,2020/05/25 18:42:00,2020/05/20 0:20:00,2020/05/11 7:02:00
,2020/05/25 21:42:00,2020/05/20 1:20:00,2020/05/11 8:02:00
,2020/05/25 22:42:00,2020/05/20 3:20:00,2020/05/11 9:02:00
,2020/05/26 0:42:00,2020/05/20 7:20:00,2020/05/11 10:02:00
,2020/05/26 1:42:00,2020/05/20 9:20:00,2020/05/11 11:02:00
,2020/05/26 3:42:00,2020/05/20 11:20:00,2020/05/11 12:02:00
,2020/05/26 6:42:00,2020/05/20 13:20:00,2020/05/11 13:02:00
,2020/05/26 9:42:00,2020/05/20 15:20:00,2020/05/11 14:02:00
,2020/05/26 12:42:00,2020/05/20 17:20:00,2020/05/11 15:02:00
,2020/05/26 15:42:00,2020/05/20 19:20:00,2020/05/11 16:02:00
,2020/05/26 18:42:00,2020/05/20 21:20:00,2020/05/11 17:02:00
,2020/05/26 21:42:00,2020/05/20 22:20:00,2020/05/11 18:02:00
,2020/05/26 22:42:00,2020/05/20 23:20:00,2020/05/11 19:02:00
,2020/05/27 0:42:00,2020/05/21 0:20:00,2020/05/11 20:02:00
,2020/05/27 1:42:00,2020/05/21 1:20:00,2020/05/11 21:02:00
,2020/05/27 3:42:00,2020/05/21 3:20:00,2020/05/11 22:02:00
,2020/05/27 6:42:00,2020/05/21 7:20:00,2020/05/11 23:02:00
,2020/05/27 9:42:00,2020/05/21 9:20:00,2020/05/12 0:02:00
,2020/05/27 12:42:00,2020/05/21 11:20:00,2020/05/12 1:02:00
,2020/05/27 15:42:00,2020/05/21 13:20:00,2020/05/12 2:02:00
,2020/05/27 18:42:00,2020/05/21 15:20:00,2020/05/12 3:02:00
,2020/05/27 21:42:00,2020/05/21 17:20:00,2020/05/12 4:02:00
,2020/05/27 22:42:00,2020/05/21 19:20:00,2020/05/12 5:02:00
,2020/05/28 0:42:00,2020/05/21 21:20:00,2020/05/12 6:02:00
,2020/05/28 1:42:00,2020/05/21 22:20:00,2020/05/12 7:02:00
,2020/05/28 3:42:00,2020/05/21 23:20:00,2020/05/12 8:02:00
,2020/05/28 6:42:00,2020/05/22 0:20:00,2020/05/12 9:02:00
,2020/05/28 9:42:00,2020/05/22 1:20:00,2020/05/12 10:02:00
,2020/05/28 12:42:00,2020/05/22 3:20:00,2020/05/12 11:02:00
,2020/05/28 15:42:00,2020/05/22 7:20:00,2020/05/12 12:02:00
,2020/05/28 18:42:00,2020/05/22 9:20:00,2020/05/12 13:02:00
,2020/05/28 21:42:00,2020/05/22 11:20:00,2020/05/12 14:02:00
,2020/05/28 22:42:00,2020/05/22 13:20:00,2020/05/12 15:02:00
,2020/05/29 0:42:00,2020/05/22 15:20:00,2020/05/12 16:02:00
,2020/05/29 1:42:00,2020/05/22 17:20:00,2020/05/12 17:02:00
,2020/05/29 3:42:00,2020/05/22 19:20:00,2020/05/12 18:02:00
,2020/05/29 6:42:00,2020/05/22 21:20:00,2020/05/12 19:02:00
,2020/05/29 9:42:00,2020/05/22 22:20:00,2020/05/12 20:02:00
,2020/05/29 12:42:00,2020/05/22 23:20:00,2020/05/12 21:02:00
,2020/05/29 15:42:00,2020/05/23 0:20:00,2020/05/12 22:02:00
,2020/05/29 18:42:00,2020/05/23 1:20:00,2020/05/12 23:02:00
,2020/05/29 21:42:00,2020/05/23 3:20:00,2020/05/13 0:02:00
,2020/05/29 22:42:00,2020/05/23 7:20:00,2020/05/13 1:02:00
,2020/05/30 0:42:00,2020/05/23 9:20:00,2020/05/13 2:02:00
,2020/05/30 1:42:00,2020/05/23 11:20:00,2020/05/13 3:02:00
,2020/05/30 3:42:00,2020/05/23 13:20:00,2020/05/13 4:02:00
,2020/05/30 6:42:00,2020/05/23 15:20:00,2020/05/13 5:02:00
,2020/05/30 9:42:00,2020/05/23 17:20:00,2020/05/13 6:02:00
,2020/05/30 12:42:00,2020/05/23 19:20:00,2020/05/13 7:02:00
,2020/05/30 15:42:00,2020/05/23 21:20:00,2020/05/13 8:02:00
,2020/05/30 18:42:00,2020/05/23 22:20:00,2020/05/13 9:02:00
,2020/05/30 21:42:00,2020/05/23 23:20:00,2020/05/13 10:02:00
,2020/05/30 22:42:00,2020/05/24 0:20:00,2020/05/13 11:02:00
,2020/05/31 0:42:00,2020/05/24 1:20:00,2020/05/13 12:02:00
,2020/05/31 1:42:00,2020/05/24 3:20:00,2020/05/13 13:02:00
,2020/05/31 3:42:00,2020/05/24 7:20:00,2020/05/13 14:02:00
,2020/05/31 6:42:00,2020/05/24 9:20:00,2020/05/13 15:02:00
,2020/05/31 9:42:00,2020/05/24 11:20:00,2020/05/13 16:02:00
,2020/05/31 12:42:00,2020/05/24 13:20:00,2020/05/13 17:02:00
,2020/05/31 15:42:00,2020/05/24 15:20:00,2020/05/13 18:02:00
,2020/05/31 18:42:00,2020/05/24 17:20:00,2020/05/13 19:02:00
,2020/05/31 21:42:00,2020/05/24 19:20:00,2020/05/13 20:02:00
,2020/05/31 22:42:00,2020/05/24 21:20:00,2020/05/13 21:02:00
,,2020/05/24 22:20:00,2020/05/13 22:02:00
,,2020/05/24 23:20:00,2020/05/13 23:02:00
,,2020/05/25 0:20:00,2020/05/14 0:02:00
,,2020/05/25 1:20:00,2020/05/14 1:02:00
,,2020/05/25 3:20:00,2020/05/14 2:02:00
,,2020/05/25 7:20:00,2020/05/14 3:02:00
,,2020/05/25 9:20:00,2020/05/14 4:02:00
,,2020/05/25 11:20:00,2020/05/14 5:02:00
,,2020/05/25 13:20:00,2020/05/14 6:02:00
,,2020/05/25 15:20:00,2020/05/14 7:02:00
,,2020/05/25 17:20:00,2020/05/14 8:02:00
,,2020/05/25 19:20:00,2020/05/14 9:02:00
,,2020/05/25 21:20:00,2020/05/14 10:02:00
,,2020/05/25 22:20:00,2020/05/14 11:02:00
,,2020/05/25 23:20:00,2020/05/14 12:02:00
,,2020/05/26 0:20:00,2020/05/14 13:02:00
,,2020/05/26 1:20:00,2020/05/14 14:02:00
,,2020/05/26 3:20:00,2020/05/14 15:02:00